Time,TemperatureF,DewpointF,PressureIn,WindDirection,WindDirectionDegrees,WindSpeedMPH,WindSpeedGustMPH,Humidity,HourlyPrecipIn,Conditions,Clouds,dailyrainin,SoftwareType,DateUTC
2013-03-03 00:00:00,22.8,20.7,30.04,North,9,6.0,14.0,91,0.00,,,0.00,meteohub,2013-03-03 05:00:00,
2013-03-03 00:01:00,22.8,20.7,30.04,North,355,6.0,14.0,91,0.00,,,0.00,meteohub,2013-03-03 05:01:00,
2013-03-03 00:03:00,22.6,20.5,30.04,NNW,348,2.0,14.0,91,0.00,,,0.00,meteohub,2013-03-03 05:03:00,
2013-03-03 00:08:00,22.6,20.5,30.04,NNE,30,2.0,11.0,91,0.00,,,0.00,meteohub,2013-03-03 05:08:00,
2013-03-03 00:13:00,22.6,20.5,30.04,NNE,19,3.0,10.0,91,0.00,,,0.00,meteohub,2013-03-03 05:13:00,
2013-03-03 00:19:00,22.5,20.3,30.04,North,9,1.0,11.0,91,0.00,,,0.00,meteohub,2013-03-03 05:19:00,
2013-03-03 00:24:00,22.5,20.3,30.04,North,5,1.0,11.0,91,0.00,,,0.00,meteohub,2013-03-03 05:24:00,
2013-03-03 00:29:00,22.5,20.3,30.04,NNE,25,3.0,11.0,91,0.00,,,0.00,meteohub,2013-03-03 05:29:00,
2013-03-03 00:34:00,22.3,20.3,30.04,NNE,19,8.0,9.0,92,0.00,,,0.00,meteohub,2013-03-03 05:34:00,
2013-03-03 00:39:00,22.3,20.3,30.04,North,0,2.0,9.0,92,0.00,,,0.00,meteohub,2013-03-03 05:39:00,
2013-03-03 00:44:00,22.3,20.3,30.04,NNE,26,2.0,10.0,92,0.00,,,0.00,meteohub,2013-03-03 05:44:00,
2013-03-03 00:49:00,22.3,20.1,30.04,NNE,29,4.0,10.0,91,0.00,,,0.00,meteohub,2013-03-03 05:49:00,
2013-03-03 00:54:00,22.3,20.1,30.04,North,355,2.0,10.0,91,0.00,,,0.00,meteohub,2013-03-03 05:54:00,
2013-03-03 00:59:00,22.3,20.1,30.04,NE,36,1.0,9.0,91,0.00,,,0.00,meteohub,2013-03-03 05:59:00,
2013-03-03 01:04:00,22.3,20.1,30.04,NNE,29,1.0,9.0,91,0.00,,,0.00,meteohub,2013-03-03 06:04:00,
2013-03-03 01:09:00,22.3,20.1,30.04,NNE,22,3.0,8.0,91,0.00,,,0.00,meteohub,2013-03-03 06:09:00,
2013-03-03 01:14:00,22.3,20.1,30.04,NNW,346,1.0,8.0,91,0.00,,,0.00,meteohub,2013-03-03 06:14:00,
2013-03-03 01:19:00,22.3,20.1,30.04,North,355,3.0,8.0,91,0.00,,,0.00,meteohub,2013-03-03 06:19:00,
2013-03-03 01:25:00,22.3,20.1,30.04,North,5,2.0,8.0,91,0.00,,,0.00,meteohub,2013-03-03 06:25:00,
2013-03-03 01:30:00,22.3,20.1,30.04,NNE,19,3.0,8.0,91,0.00,,,0.00,meteohub,2013-03-03 06:30:00,
2013-03-03 01:35:00,22.3,20.1,30.04,North,11,1.0,8.0,91,0.00,,,0.00,meteohub,2013-03-03 06:35:00,
2013-03-03 01:40:00,22.3,20.1,30.04,NW,308,4.0,7.0,91,0.00,,,0.00,meteohub,2013-03-03 06:40:00,
2013-03-03 01:45:00,22.1,19.9,30.04,North,355,4.0,8.0,91,0.00,,,0.00,meteohub,2013-03-03 06:45:00,
2013-03-03 01:50:00,22.1,19.9,30.04,NNW,346,3.0,8.0,91,0.00,,,0.00,meteohub,2013-03-03 06:50:00,
2013-03-03 01:55:00,22.1,19.9,30.04,NNW,346,7.0,9.0,91,0.00,,,0.00,meteohub,2013-03-03 06:55:00,
2013-03-03 02:00:00,21.9,19.8,30.04,NNW,346,2.0,9.0,91,0.00,,,0.00,meteohub,2013-03-03 07:00:00,
2013-03-03 02:05:00,21.9,19.8,30.04,NNW,344,3.0,9.0,91,0.00,,,0.00,meteohub,2013-03-03 07:05:00,
2013-03-03 02:10:00,21.9,19.8,30.04,NNE,19,4.0,9.0,91,0.00,,,0.00,meteohub,2013-03-03 07:10:00,
2013-03-03 02:15:00,21.9,19.9,30.04,NNW,333,3.0,9.0,92,0.00,,,0.00,meteohub,2013-03-03 07:15:00,
2013-03-03 02:20:00,21.9,19.9,30.03,NNW,336,3.0,9.0,92,0.00,,,0.00,meteohub,2013-03-03 07:20:00,
2013-03-03 02:25:00,21.9,19.9,30.03,North,5,4.0,8.0,92,0.00,,,0.00,meteohub,2013-03-03 07:25:00,
2013-03-03 02:30:00,21.7,19.8,30.03,NNE,13,1.0,8.0,92,0.00,,,0.00,meteohub,2013-03-03 07:30:00,
2013-03-03 02:35:00,21.7,19.8,30.03,North,5,3.0,8.0,92,0.00,,,0.00,meteohub,2013-03-03 07:35:00,
2013-03-03 02:40:00,21.9,19.9,30.03,North,0,3.0,9.0,92,0.00,,,0.00,meteohub,2013-03-03 07:40:00,
2013-03-03 02:46:00,21.9,19.9,30.03,North,5,4.0,9.0,92,0.00,,,0.00,meteohub,2013-03-03 07:46:00,
2013-03-03 02:51:00,21.9,19.9,30.02,NNW,327,3.0,9.0,92,0.00,,,0.00,meteohub,2013-03-03 07:51:00,
2013-03-03 02:56:00,21.9,19.9,30.02,NNW,342,2.0,8.0,92,0.00,,,0.00,meteohub,2013-03-03 07:56:00,
2013-03-03 03:01:00,21.9,19.9,30.02,NNW,345,1.0,8.0,92,0.00,,,0.00,meteohub,2013-03-03 08:01:00,
2013-03-03 03:06:00,21.9,19.9,30.02,NW,319,13.0,13.0,92,0.00,,,0.00,meteohub,2013-03-03 08:06:00,
2013-03-03 03:11:00,21.7,19.8,30.02,NNE,24,8.0,13.0,92,0.00,,,0.00,meteohub,2013-03-03 08:11:00,
2013-03-03 03:16:00,21.7,19.8,30.02,NNW,344,6.0,13.0,92,0.00,,,0.00,meteohub,2013-03-03 08:16:00,
2013-03-03 03:21:00,21.7,19.8,30.02,NNW,346,6.0,13.0,92,0.00,,,0.00,meteohub,2013-03-03 08:21:00,
2013-03-03 03:26:00,21.6,19.6,30.02,NW,321,5.0,11.0,92,0.00,,,0.00,meteohub,2013-03-03 08:26:00,
2013-03-03 03:31:00,21.6,19.6,30.02,NNW,333,9.0,11.0,92,0.00,,,0.00,meteohub,2013-03-03 08:31:00,
2013-03-03 03:36:00,21.6,19.6,30.02,NNE,13,7.0,11.0,92,0.00,,,0.00,meteohub,2013-03-03 08:36:00,
2013-03-03 03:41:00,21.6,19.6,30.02,North,5,5.0,11.0,92,0.00,,,0.00,meteohub,2013-03-03 08:41:00,
2013-03-03 03:46:00,21.4,19.4,30.02,NNW,343,6.0,11.0,92,0.00,,,0.00,meteohub,2013-03-03 08:46:00,
2013-03-03 03:51:00,21.4,19.4,30.02,NNE,15,6.0,11.0,92,0.00,,,0.00,meteohub,2013-03-03 08:51:00,
2013-03-03 03:57:00,21.4,19.4,30.02,NNW,342,4.0,10.0,92,0.00,,,0.00,meteohub,2013-03-03 08:57:00,
2013-03-03 04:02:00,21.4,19.4,30.02,North,5,4.0,11.0,92,0.00,,,0.00,meteohub,2013-03-03 09:02:00,
2013-03-03 04:07:00,21.2,19.2,30.02,NNE,26,3.0,11.0,92,0.00,,,0.00,meteohub,2013-03-03 09:07:00,
2013-03-03 04:12:00,21.2,19.2,30.02,NNW,331,7.0,11.0,92,0.00,,,0.00,meteohub,2013-03-03 09:12:00,
2013-03-03 04:17:00,21.2,19.2,30.02,NNW,342,3.0,11.0,92,0.00,,,0.00,meteohub,2013-03-03 09:17:00,
2013-03-03 04:22:00,21.2,19.2,30.02,North,355,3.0,11.0,92,0.00,,,0.00,meteohub,2013-03-03 09:22:00,
2013-03-03 04:27:00,21.2,19.2,30.02,North,5,2.0,10.0,92,0.00,,,0.00,meteohub,2013-03-03 09:27:00,
2013-03-03 04:32:00,21.2,19.2,30.02,North,5,0.0,10.0,92,0.00,,,0.00,meteohub,2013-03-03 09:32:00,
2013-03-03 04:37:00,21.0,19.0,30.02,North,351,3.0,10.0,92,0.00,,,0.00,meteohub,2013-03-03 09:37:00,
2013-03-03 04:42:00,21.0,19.0,30.02,NNW,330,5.0,10.0,92,0.00,,,0.00,meteohub,2013-03-03 09:42:00,
2013-03-03 04:47:00,21.0,19.0,30.02,NNW,348,3.0,10.0,92,0.00,,,0.00,meteohub,2013-03-03 09:47:00,
2013-03-03 04:52:00,21.0,19.0,30.02,NNW,337,5.0,8.0,92,0.00,,,0.00,meteohub,2013-03-03 09:52:00,
2013-03-03 04:57:00,21.0,19.0,30.02,North,355,5.0,8.0,92,0.00,,,0.00,meteohub,2013-03-03 09:57:00,
2013-03-03 05:02:00,21.0,19.0,30.02,NNW,327,2.0,7.0,92,0.00,,,0.00,meteohub,2013-03-03 10:02:00,
2013-03-03 05:07:00,21.0,19.0,30.02,WNW,299,6.0,7.0,92,0.00,,,0.00,meteohub,2013-03-03 10:07:00,
2013-03-03 05:12:00,21.0,19.0,30.02,NNW,348,9.0,9.0,92,0.00,,,0.00,meteohub,2013-03-03 10:12:00,
2013-03-03 05:17:00,21.0,19.0,30.02,NNE,23,6.0,10.0,92,0.00,,,0.00,meteohub,2013-03-03 10:17:00,
2013-03-03 05:22:00,20.8,18.9,30.02,North,355,3.0,10.0,92,0.00,,,0.00,meteohub,2013-03-03 10:22:00,
2013-03-03 05:27:00,20.8,18.9,30.02,NNW,333,8.0,10.0,92,0.00,,,0.00,meteohub,2013-03-03 10:27:00,
2013-03-03 05:32:00,20.7,18.7,30.02,NNE,21,4.0,10.0,92,0.00,,,0.00,meteohub,2013-03-03 10:32:00,
2013-03-03 05:37:00,20.7,18.7,30.02,NNW,348,5.0,10.0,92,0.00,,,0.00,meteohub,2013-03-03 10:37:00,
2013-03-03 05:42:00,20.7,18.7,30.02,NW,316,3.0,10.0,92,0.00,,,0.00,meteohub,2013-03-03 10:42:00,
2013-03-03 05:47:00,20.7,18.7,30.02,NW,323,4.0,10.0,92,0.00,,,0.00,meteohub,2013-03-03 10:47:00,
2013-03-03 05:52:00,20.7,18.5,30.02,NNW,333,6.0,9.0,91,0.00,,,0.00,meteohub,2013-03-03 10:52:00,
2013-03-03 05:57:00,20.5,18.3,30.02,NW,322,5.0,9.0,91,0.00,,,0.00,meteohub,2013-03-03 10:57:00,
2013-03-03 06:02:00,20.7,18.5,30.02,North,355,3.0,9.0,91,0.00,,,0.00,meteohub,2013-03-03 11:02:00,
2013-03-03 06:07:00,20.7,18.5,30.02,NNW,343,4.0,11.0,91,0.00,,,0.00,meteohub,2013-03-03 11:07:00,
2013-03-03 06:13:00,20.7,18.5,30.03,NNW,348,7.0,11.0,91,0.00,,,0.00,meteohub,2013-03-03 11:13:00,
2013-03-03 06:18:00,20.7,18.5,30.03,NNW,347,5.0,9.0,91,0.00,,,0.00,meteohub,2013-03-03 11:18:00,
2013-03-03 06:23:00,20.7,18.5,30.02,NNW,327,5.0,8.0,91,0.00,,,0.00,meteohub,2013-03-03 11:23:00,
2013-03-03 06:28:00,20.7,18.5,30.03,North,355,6.0,8.0,91,0.00,,,0.00,meteohub,2013-03-03 11:28:00,
2013-03-03 06:33:00,20.7,18.5,30.03,North,355,3.0,8.0,91,0.00,,,0.00,meteohub,2013-03-03 11:33:00,
2013-03-03 06:38:00,20.7,18.5,30.03,NNW,344,5.0,9.0,91,0.00,,,0.00,meteohub,2013-03-03 11:38:00,
2013-03-03 06:43:00,20.7,18.7,30.03,North,0,3.0,9.0,92,0.00,,,0.00,meteohub,2013-03-03 11:43:00,
2013-03-03 06:48:00,20.7,18.7,30.03,NNW,340,7.0,8.0,92,0.00,,,0.00,meteohub,2013-03-03 11:48:00,
2013-03-03 06:53:00,20.7,18.7,30.03,NNE,22,6.0,8.0,92,0.00,,,0.00,meteohub,2013-03-03 11:53:00,
2013-03-03 06:58:00,20.7,18.7,30.03,NNW,337,3.0,8.0,92,0.00,,,0.00,meteohub,2013-03-03 11:58:00,
2013-03-03 07:04:00,20.7,18.7,30.03,NNE,13,4.0,10.0,92,0.00,,,0.00,meteohub,2013-03-03 12:04:00,
2013-03-03 07:09:00,20.7,18.7,30.03,NNW,329,5.0,10.0,92,0.00,,,0.00,meteohub,2013-03-03 12:09:00,
2013-03-03 07:14:00,20.8,18.9,30.04,NNW,332,8.0,10.0,92,0.00,,,0.00,meteohub,2013-03-03 12:14:00,
2013-03-03 07:19:00,20.8,18.9,30.04,NNE,12,4.0,9.0,92,0.00,,,0.00,meteohub,2013-03-03 12:19:00,
2013-03-03 07:24:00,20.8,19.2,30.04,NNW,344,4.0,8.0,93,0.00,,,0.00,meteohub,2013-03-03 12:24:00,
2013-03-03 07:29:00,20.8,19.2,30.04,NNW,343,2.0,8.0,93,0.00,,,0.00,meteohub,2013-03-03 12:29:00,
2013-03-03 07:34:00,20.8,19.2,30.04,NNW,331,2.0,6.0,93,0.00,,,0.00,meteohub,2013-03-03 12:34:00,
2013-03-03 07:39:00,21.0,19.4,30.04,NNW,336,4.0,6.0,93,0.00,,,0.00,meteohub,2013-03-03 12:39:00,
2013-03-03 07:44:00,21.0,19.4,30.04,North,9,5.0,6.0,93,0.00,,,0.00,meteohub,2013-03-03 12:44:00,
2013-03-03 07:49:00,21.2,19.6,30.04,North,5,2.0,6.0,93,0.00,,,0.00,meteohub,2013-03-03 12:49:00,
2013-03-03 07:54:00,21.2,19.6,30.04,NNW,335,1.0,7.0,93,0.00,,,0.00,meteohub,2013-03-03 12:54:00,
2013-03-03 08:00:00,21.4,19.8,30.04,North,9,2.0,7.0,93,0.00,,,0.00,meteohub,2013-03-03 13:00:00,
2013-03-03 08:05:00,21.4,19.8,30.04,North,355,3.0,7.0,93,0.00,,,0.00,meteohub,2013-03-03 13:05:00,
2013-03-03 08:10:00,21.4,19.8,30.04,North,349,4.0,8.0,93,0.00,,,0.00,meteohub,2013-03-03 13:10:00,
2013-03-03 08:15:00,21.4,19.8,30.04,NW,317,4.0,8.0,93,0.00,,,0.00,meteohub,2013-03-03 13:15:00,
2013-03-03 08:20:00,21.4,19.8,30.04,NW,321,4.0,7.0,93,0.00,,,0.00,meteohub,2013-03-03 13:20:00,
2013-03-03 08:25:00,21.6,19.6,30.04,NNW,341,4.0,8.0,92,0.00,,,0.00,meteohub,2013-03-03 13:25:00,
2013-03-03 08:30:00,21.7,19.8,30.04,NNE,16,6.0,8.0,92,0.00,,,0.00,meteohub,2013-03-03 13:30:00,
2013-03-03 08:35:00,21.7,19.8,30.04,NNW,327,2.0,8.0,92,0.00,,,0.00,meteohub,2013-03-03 13:35:00,
2013-03-03 08:40:00,21.9,19.9,30.04,North,0,5.0,8.0,92,0.00,,,0.00,meteohub,2013-03-03 13:40:00,
2013-03-03 08:45:00,21.9,19.9,30.04,NNW,327,3.0,8.0,92,0.00,,,0.00,meteohub,2013-03-03 13:45:00,
2013-03-03 08:50:00,22.1,20.1,30.04,North,355,3.0,7.0,92,0.00,,,0.00,meteohub,2013-03-03 13:50:00,
2013-03-03 08:56:00,22.1,20.1,30.04,NNW,343,4.0,9.0,92,0.00,,,0.00,meteohub,2013-03-03 13:56:00,
2013-03-03 09:01:00,22.1,20.1,30.04,NNW,333,3.0,9.0,92,0.00,,,0.00,meteohub,2013-03-03 14:01:00,
2013-03-03 09:06:00,22.3,20.3,30.04,NW,323,2.0,9.0,92,0.00,,,0.00,meteohub,2013-03-03 14:06:00,
2013-03-03 09:11:00,22.3,20.3,30.04,North,355,2.0,8.0,92,0.00,,,0.00,meteohub,2013-03-03 14:11:00,
2013-03-03 09:16:00,22.5,20.5,30.04,NNW,327,5.0,8.0,92,0.00,,,0.00,meteohub,2013-03-03 14:16:00,
2013-03-03 09:21:00,22.5,20.5,30.03,NW,304,7.0,8.0,92,0.00,,,0.00,meteohub,2013-03-03 14:21:00,
2013-03-03 09:26:00,22.6,20.7,30.03,NW,306,5.0,9.0,92,0.00,,,0.00,meteohub,2013-03-03 14:26:00,
2013-03-03 09:31:00,22.6,20.7,30.03,NNW,329,2.0,10.0,92,0.00,,,0.00,meteohub,2013-03-03 14:31:00,
2013-03-03 09:36:00,22.6,20.5,30.03,North,0,6.0,10.0,91,0.00,,,0.00,meteohub,2013-03-03 14:36:00,
2013-03-03 09:41:00,22.6,20.5,30.03,NW,311,3.0,10.0,91,0.00,,,0.00,meteohub,2013-03-03 14:41:00,
2013-03-03 09:46:00,22.8,20.7,30.03,NNW,331,5.0,10.0,91,0.00,,,0.00,meteohub,2013-03-03 14:46:00,
2013-03-03 09:51:00,22.6,20.5,30.03,North,355,6.0,12.0,91,0.00,,,0.00,meteohub,2013-03-03 14:51:00,
2013-03-03 09:56:00,22.6,20.5,30.03,NNW,329,5.0,12.0,91,0.00,,,0.00,meteohub,2013-03-03 14:56:00,
2013-03-03 10:01:00,22.6,20.5,30.03,NNW,337,3.0,13.0,91,0.00,,,0.00,meteohub,2013-03-03 15:01:00,
2013-03-03 10:06:00,22.8,20.7,30.03,NNE,15,4.0,13.0,91,0.00,,,0.00,meteohub,2013-03-03 15:06:00,
2013-03-03 10:12:00,23.0,20.8,30.03,NNE,15,5.0,11.0,91,0.00,,,0.00,meteohub,2013-03-03 15:12:00,
2013-03-03 10:17:00,22.8,20.3,30.03,ENE,78,4.0,12.0,90,0.00,,,0.00,meteohub,2013-03-03 15:17:00,
2013-03-03 10:22:00,23.2,21.0,30.03,NNW,342,8.0,12.0,91,0.00,,,0.00,meteohub,2013-03-03 15:22:00,
2013-03-03 10:27:00,23.4,20.8,30.03,North,5,4.0,12.0,90,0.00,,,0.00,meteohub,2013-03-03 15:27:00,
2013-03-03 10:32:00,23.4,20.8,30.03,North,5,3.0,11.0,90,0.00,,,0.00,meteohub,2013-03-03 15:32:00,
2013-03-03 10:37:00,23.4,20.8,30.03,North,355,7.0,12.0,90,0.00,,,0.00,meteohub,2013-03-03 15:37:00,
2013-03-03 10:42:00,23.0,20.5,30.04,NNW,342,4.0,13.0,90,0.00,,,0.00,meteohub,2013-03-03 15:42:00,
2013-03-03 10:47:00,23.2,20.7,30.04,NNW,331,4.0,13.0,90,0.00,,,0.00,meteohub,2013-03-03 15:47:00,
2013-03-03 10:52:00,23.4,20.8,30.04,NNW,331,4.0,13.0,90,0.00,,,0.00,meteohub,2013-03-03 15:52:00,
2013-03-03 10:57:00,23.2,20.7,30.04,NNE,24,6.0,12.0,90,0.00,,,0.00,meteohub,2013-03-03 15:57:00,
2013-03-03 11:02:00,23.2,20.7,30.04,WNW,295,4.0,13.0,90,0.00,,,0.00,meteohub,2013-03-03 16:02:00,
2013-03-03 11:07:00,23.2,20.7,30.04,NNW,334,5.0,13.0,90,0.00,,,0.00,meteohub,2013-03-03 16:07:00,
2013-03-03 11:12:00,23.2,20.5,30.04,North,355,6.0,12.0,89,0.00,,,0.00,meteohub,2013-03-03 16:12:00,
2013-03-03 11:17:00,23.2,20.7,30.04,North,5,6.0,12.0,90,0.00,,,0.00,meteohub,2013-03-03 16:17:00,
2013-03-03 11:22:00,23.2,20.7,30.04,NNW,346,6.0,11.0,90,0.00,,,0.00,meteohub,2013-03-03 16:22:00,
2013-03-03 11:27:00,22.8,20.1,30.04,North,5,7.0,14.0,89,0.00,,,0.00,meteohub,2013-03-03 16:27:00,
2013-03-03 11:32:00,23.2,20.7,30.04,NNW,338,3.0,15.0,90,0.00,,,0.00,meteohub,2013-03-03 16:32:00,
2013-03-03 11:37:00,23.2,20.5,30.04,NNW,342,3.0,15.0,89,0.00,,,0.00,meteohub,2013-03-03 16:37:00,
2013-03-03 11:42:00,23.4,20.7,30.04,North,355,9.0,14.0,89,0.00,,,0.00,meteohub,2013-03-03 16:42:00,
2013-03-03 11:47:00,23.4,20.7,30.04,NNE,22,4.0,14.0,89,0.00,,,0.00,meteohub,2013-03-03 16:47:00,
2013-03-03 11:52:00,23.4,20.7,30.04,NNW,331,7.0,14.0,89,0.00,,,0.00,meteohub,2013-03-03 16:52:00,
2013-03-03 11:57:00,23.4,20.7,30.04,WNW,290,6.0,13.0,89,0.00,,,0.00,meteohub,2013-03-03 16:57:00,
2013-03-03 12:02:00,23.4,20.3,30.04,NNE,15,8.0,13.0,88,0.00,,,0.00,meteohub,2013-03-03 17:02:00,
2013-03-03 12:07:00,23.4,20.3,30.04,North,349,4.0,15.0,88,0.00,,,0.00,meteohub,2013-03-03 17:07:00,
2013-03-03 12:12:00,23.5,20.8,30.04,North,351,2.0,15.0,89,0.00,,,0.00,meteohub,2013-03-03 17:12:00,
2013-03-03 12:18:00,23.5,20.5,30.04,NNW,337,9.0,13.0,88,0.00,,,0.00,meteohub,2013-03-03 17:18:00,
2013-03-03 12:23:00,23.4,20.3,30.04,NNW,345,5.0,12.0,88,0.00,,,0.00,meteohub,2013-03-03 17:23:00,
2013-03-03 12:28:00,23.4,20.3,30.04,North,350,10.0,11.0,88,0.00,,,0.00,meteohub,2013-03-03 17:28:00,
2013-03-03 12:33:00,23.2,20.1,30.04,North,5,7.0,12.0,88,0.00,,,0.00,meteohub,2013-03-03 17:33:00,
2013-03-03 12:38:00,23.0,19.9,30.04,NW,311,5.0,12.0,88,0.00,,,0.00,meteohub,2013-03-03 17:38:00,
2013-03-03 12:43:00,22.8,19.8,30.04,North,349,12.0,12.0,88,0.00,,,0.00,meteohub,2013-03-03 17:43:00,
2013-03-03 12:48:00,22.8,19.8,30.03,NNE,15,4.0,16.0,88,0.00,,,0.00,meteohub,2013-03-03 17:48:00,
2013-03-03 12:53:00,23.0,20.3,30.04,NW,319,4.0,16.0,89,0.00,,,0.00,meteohub,2013-03-03 17:53:00,
2013-03-03 12:58:00,23.2,20.1,30.03,NW,309,4.0,16.0,88,0.00,,,0.00,meteohub,2013-03-03 17:58:00,
2013-03-03 13:03:00,23.0,20.3,30.03,NW,308,4.0,14.0,89,0.00,,,0.00,meteohub,2013-03-03 18:03:00,
2013-03-03 13:09:00,23.2,20.5,30.03,NW,326,10.0,10.0,89,0.00,,,0.00,meteohub,2013-03-03 18:09:00,
2013-03-03 13:14:00,23.2,20.1,30.03,NNW,336,3.0,9.0,88,0.00,,,0.00,meteohub,2013-03-03 18:14:00,
2013-03-03 13:19:00,23.2,20.1,30.03,NNW,328,9.0,11.0,88,0.00,,,0.00,meteohub,2013-03-03 18:19:00,
2013-03-03 13:24:00,23.4,20.3,30.03,NNW,333,7.0,11.0,88,0.00,,,0.00,meteohub,2013-03-03 18:24:00,
2013-03-03 13:29:00,23.2,19.9,30.02,North,351,8.0,10.0,87,0.00,,,0.00,meteohub,2013-03-03 18:29:00,
2013-03-03 13:34:00,23.0,19.9,30.03,NW,325,5.0,10.0,88,0.00,,,0.00,meteohub,2013-03-03 18:34:00,
2013-03-03 13:39:00,22.8,19.8,30.02,NNW,331,4.0,11.0,88,0.00,,,0.00,meteohub,2013-03-03 18:39:00,
2013-03-03 13:44:00,22.8,19.8,30.02,NNE,19,6.0,11.0,88,0.00,,,0.00,meteohub,2013-03-03 18:44:00,
2013-03-03 13:49:00,22.8,19.8,30.02,NNW,344,4.0,13.0,88,0.00,,,0.00,meteohub,2013-03-03 18:49:00,
2013-03-03 13:54:00,22.8,19.8,30.02,NW,325,6.0,13.0,88,0.00,,,0.00,meteohub,2013-03-03 18:54:00,
2013-03-03 13:59:00,22.8,19.8,30.02,NW,326,9.0,13.0,88,0.00,,,0.00,meteohub,2013-03-03 18:59:00,
2013-03-03 14:05:00,22.6,19.6,30.02,NNW,330,6.0,13.0,88,0.00,,,0.00,meteohub,2013-03-03 19:05:00,
2013-03-03 14:10:00,22.6,19.6,30.02,North,0,8.0,12.0,88,0.00,,,0.00,meteohub,2013-03-03 19:10:00,
2013-03-03 14:15:00,22.6,19.6,30.02,NNW,329,3.0,12.0,88,0.00,,,0.00,meteohub,2013-03-03 19:15:00,
2013-03-03 14:20:00,22.6,19.9,30.02,NNW,329,4.0,13.0,89,0.00,,,0.00,meteohub,2013-03-03 19:20:00,
2013-03-03 14:25:00,22.8,20.1,30.02,NNE,27,6.0,13.0,89,0.00,,,0.00,meteohub,2013-03-03 19:25:00,
2013-03-03 14:30:00,22.6,19.6,30.02,NNW,344,6.0,13.0,88,0.00,,,0.00,meteohub,2013-03-03 19:30:00,
2013-03-03 14:35:00,22.6,19.6,30.02,NNW,348,5.0,11.0,88,0.00,,,0.00,meteohub,2013-03-03 19:35:00,
2013-03-03 14:40:00,22.6,19.6,30.02,NNW,335,5.0,12.0,88,0.00,,,0.00,meteohub,2013-03-03 19:40:00,
2013-03-03 14:45:00,22.6,19.4,30.02,NNE,20,6.0,14.0,87,0.00,,,0.00,meteohub,2013-03-03 19:45:00,
2013-03-03 14:50:00,22.8,19.0,30.02,WNW,298,5.0,14.0,85,0.00,,,0.00,meteohub,2013-03-03 19:50:00,
2013-03-03 14:56:00,22.8,18.5,30.02,NNW,343,6.0,13.0,83,0.00,,,0.00,meteohub,2013-03-03 19:56:00,
2013-03-03 15:01:00,22.8,18.5,30.02,North,355,3.0,15.0,83,0.00,,,0.00,meteohub,2013-03-03 20:01:00,
2013-03-03 15:06:00,23.2,18.9,30.02,North,5,4.0,15.0,83,0.00,,,0.00,meteohub,2013-03-03 20:06:00,
2013-03-03 15:11:00,23.0,18.0,30.02,NNW,331,6.0,15.0,81,0.00,,,0.00,meteohub,2013-03-03 20:11:00,
2013-03-03 15:16:00,22.8,17.6,30.02,NNW,327,6.0,12.0,80,0.00,,,0.00,meteohub,2013-03-03 20:16:00,
2013-03-03 15:21:00,22.8,17.6,30.02,NE,40,4.0,12.0,80,0.00,,,0.00,meteohub,2013-03-03 20:21:00,
2013-03-03 15:26:00,22.8,18.0,30.02,NW,320,6.0,10.0,81,0.00,,,0.00,meteohub,2013-03-03 20:26:00,
2013-03-03 15:32:00,22.6,17.8,30.02,NNW,332,7.0,12.0,81,0.00,,,0.00,meteohub,2013-03-03 20:32:00,
2013-03-03 15:37:00,22.6,17.8,30.02,NW,317,5.0,12.0,81,0.00,,,0.00,meteohub,2013-03-03 20:37:00,
2013-03-03 15:42:00,22.8,18.0,30.03,North,355,8.0,13.0,81,0.00,,,0.00,meteohub,2013-03-03 20:42:00,
2013-03-03 15:47:00,22.8,17.6,30.03,NNW,329,5.0,13.0,80,0.00,,,0.00,meteohub,2013-03-03 20:47:00,
2013-03-03 15:52:00,22.6,17.8,30.03,NW,323,5.0,13.0,81,0.00,,,0.00,meteohub,2013-03-03 20:52:00,
2013-03-03 15:57:00,22.6,17.8,30.03,NNW,342,6.0,13.0,81,0.00,,,0.00,meteohub,2013-03-03 20:57:00,
2013-03-03 16:02:00,22.5,17.6,30.03,NW,315,5.0,13.0,81,0.00,,,0.00,meteohub,2013-03-03 21:02:00,
2013-03-03 16:07:00,22.5,17.8,30.03,North,355,10.0,11.0,82,0.00,,,0.00,meteohub,2013-03-03 21:07:00,
2013-03-03 16:12:00,22.5,17.6,30.03,NNW,334,7.0,11.0,81,0.00,,,0.00,meteohub,2013-03-03 21:12:00,
2013-03-03 16:17:00,22.5,17.6,30.04,NNW,335,6.0,11.0,81,0.00,,,0.00,meteohub,2013-03-03 21:17:00,
2013-03-03 16:22:00,22.5,17.6,30.04,NNW,344,4.0,13.0,81,0.00,,,0.00,meteohub,2013-03-03 21:22:00,
2013-03-03 16:27:00,22.5,17.6,30.04,NNW,340,7.0,13.0,81,0.00,,,0.00,meteohub,2013-03-03 21:27:00,
2013-03-03 16:32:00,22.5,17.8,30.04,North,355,4.0,13.0,82,0.00,,,0.00,meteohub,2013-03-03 21:32:00,
2013-03-03 16:37:00,22.3,17.6,30.04,North,0,5.0,11.0,82,0.00,,,0.00,meteohub,2013-03-03 21:37:00,
2013-03-03 16:42:00,22.3,17.6,30.04,NNW,346,7.0,11.0,82,0.00,,,0.00,meteohub,2013-03-03 21:42:00,
2013-03-03 16:47:00,22.5,17.8,30.04,NNW,346,5.0,11.0,82,0.00,,,0.00,meteohub,2013-03-03 21:47:00,
2013-03-03 16:52:00,22.5,17.8,30.04,NNW,343,9.0,9.0,82,0.00,,,0.00,meteohub,2013-03-03 21:52:00,
2013-03-03 16:57:00,22.5,17.8,30.04,North,10,6.0,10.0,82,0.00,,,0.00,meteohub,2013-03-03 21:57:00,
2013-03-03 17:02:00,22.5,17.8,30.04,NNE,13,8.0,10.0,82,0.00,,,0.00,meteohub,2013-03-03 22:02:00,
2013-03-03 17:07:00,22.5,17.8,30.04,NNE,12,7.0,10.0,82,0.00,,,0.00,meteohub,2013-03-03 22:07:00,
2013-03-03 17:12:00,22.5,17.8,30.04,NNW,345,3.0,10.0,82,0.00,,,0.00,meteohub,2013-03-03 22:12:00,
2013-03-03 17:17:00,22.3,18.0,30.04,North,351,5.0,11.0,83,0.00,,,0.00,meteohub,2013-03-03 22:17:00,
2013-03-03 17:22:00,22.3,18.0,30.04,North,355,2.0,11.0,83,0.00,,,0.00,meteohub,2013-03-03 22:22:00,
2013-03-03 17:27:00,22.3,18.0,30.05,NNW,337,2.0,11.0,83,0.00,,,0.00,meteohub,2013-03-03 22:27:00,
2013-03-03 17:32:00,22.3,18.0,30.05,NNW,338,5.0,8.0,83,0.00,,,0.00,meteohub,2013-03-03 22:32:00,
2013-03-03 17:37:00,22.3,18.0,30.05,NNW,333,4.0,6.0,83,0.00,,,0.00,meteohub,2013-03-03 22:37:00,
2013-03-03 17:42:00,22.3,18.0,30.05,North,9,8.0,8.0,83,0.00,,,0.00,meteohub,2013-03-03 22:42:00,
2013-03-03 17:47:00,22.3,18.0,30.05,NNW,345,2.0,8.0,83,0.00,,,0.00,meteohub,2013-03-03 22:47:00,
2013-03-03 17:52:00,22.3,18.0,30.05,NE,36,3.0,8.0,83,0.00,,,0.00,meteohub,2013-03-03 22:52:00,
2013-03-03 17:57:00,22.3,17.6,30.05,NW,319,3.0,8.0,82,0.00,,,0.00,meteohub,2013-03-03 22:57:00,
2013-03-03 18:02:00,22.3,17.6,30.05,North,355,4.0,7.0,82,0.00,,,0.00,meteohub,2013-03-03 23:02:00,
2013-03-03 18:07:00,22.3,17.6,30.05,North,0,4.0,7.0,82,0.00,,,0.00,meteohub,2013-03-03 23:07:00,
2013-03-03 18:12:00,22.1,17.2,30.05,NNW,336,4.0,7.0,81,0.00,,,0.00,meteohub,2013-03-03 23:12:00,
2013-03-03 18:17:00,22.1,17.2,30.05,NNE,30,4.0,9.0,81,0.00,,,0.00,meteohub,2013-03-03 23:17:00,
2013-03-03 18:22:00,21.9,17.1,30.06,NNW,331,3.0,9.0,81,0.00,,,0.00,meteohub,2013-03-03 23:22:00,
2013-03-03 18:27:00,21.9,17.1,30.06,NE,52,6.0,9.0,81,0.00,,,0.00,meteohub,2013-03-03 23:27:00,
2013-03-03 18:32:00,21.7,16.9,30.06,North,5,2.0,9.0,81,0.00,,,0.00,meteohub,2013-03-03 23:32:00,
2013-03-03 18:37:00,21.7,17.1,30.06,NNW,348,2.0,9.0,82,0.00,,,0.00,meteohub,2013-03-03 23:37:00,
2013-03-03 18:42:00,21.6,16.9,30.06,NNE,33,5.0,9.0,82,0.00,,,0.00,meteohub,2013-03-03 23:42:00,
2013-03-03 18:47:00,21.6,17.2,30.06,NNW,336,3.0,8.0,83,0.00,,,0.00,meteohub,2013-03-03 23:47:00,
2013-03-03 18:52:00,21.6,17.4,30.06,NNW,346,0.0,7.0,84,0.00,,,0.00,meteohub,2013-03-03 23:52:00,
2013-03-03 18:57:00,21.4,17.2,30.06,NNW,331,3.0,7.0,84,0.00,,,0.00,meteohub,2013-03-03 23:57:00,
2013-03-03 19:02:00,21.4,17.6,30.06,North,351,2.0,6.0,85,0.00,,,0.00,meteohub,2013-03-04 00:02:00,
2013-03-03 19:07:00,21.4,17.6,30.06,NNW,329,2.0,5.0,85,0.00,,,0.00,meteohub,2013-03-04 00:07:00,
2013-03-03 19:12:00,21.4,17.6,30.07,NNE,18,6.0,6.0,85,0.00,,,0.00,meteohub,2013-03-04 00:12:00,
2013-03-03 19:17:00,21.4,17.8,30.07,NNW,338,2.0,6.0,86,0.00,,,0.00,meteohub,2013-03-04 00:17:00,
2013-03-03 19:22:00,21.4,17.8,30.07,NNW,342,0.0,6.0,86,0.00,,,0.00,meteohub,2013-03-04 00:22:00,
2013-03-03 19:27:00,21.4,17.8,30.07,NW,313,4.0,6.0,86,0.00,,,0.00,meteohub,2013-03-04 00:27:00,
2013-03-03 19:32:00,21.4,17.8,30.07,NW,324,3.0,5.0,86,0.00,,,0.00,meteohub,2013-03-04 00:32:00,
2013-03-03 19:37:00,21.2,18.0,30.07,NNW,337,2.0,5.0,87,0.00,,,0.00,meteohub,2013-03-04 00:37:00,
2013-03-03 19:42:00,21.2,18.0,30.07,NNE,27,2.0,5.0,87,0.00,,,0.00,meteohub,2013-03-04 00:42:00,
2013-03-03 19:47:00,21.4,18.1,30.07,NNW,347,3.0,5.0,87,0.00,,,0.00,meteohub,2013-03-04 00:47:00,
2013-03-03 19:52:00,21.4,17.8,30.08,NNW,348,4.0,6.0,86,0.00,,,0.00,meteohub,2013-03-04 00:52:00,
2013-03-03 19:57:00,21.4,18.1,30.08,NNW,331,2.0,6.0,87,0.00,,,0.00,meteohub,2013-03-04 00:57:00,
2013-03-03 20:02:00,21.4,18.1,30.08,NNE,24,4.0,6.0,87,0.00,,,0.00,meteohub,2013-03-04 01:02:00,
2013-03-03 20:07:00,21.4,18.1,30.08,North,0,1.0,6.0,87,0.00,,,0.00,meteohub,2013-03-04 01:07:00,
2013-03-03 20:12:00,21.4,18.1,30.08,NNW,343,3.0,5.0,87,0.00,,,0.00,meteohub,2013-03-04 01:12:00,
2013-03-03 20:17:00,21.4,18.1,30.08,NNW,336,3.0,6.0,87,0.00,,,0.00,meteohub,2013-03-04 01:17:00,
2013-03-03 20:22:00,21.2,18.0,30.08,NNW,345,1.0,6.0,87,0.00,,,0.00,meteohub,2013-03-04 01:22:00,
2013-03-03 20:28:00,21.2,18.0,30.09,NNW,342,3.0,6.0,87,0.00,,,0.00,meteohub,2013-03-04 01:28:00,
2013-03-03 20:33:00,21.2,18.0,30.09,NNE,12,2.0,6.0,87,0.00,,,0.00,meteohub,2013-03-04 01:33:00,
2013-03-03 20:38:00,21.0,17.8,30.09,NNW,337,2.0,5.0,87,0.00,,,0.00,meteohub,2013-03-04 01:38:00,
2013-03-03 20:43:00,21.0,17.8,30.09,NNE,14,2.0,6.0,87,0.00,,,0.00,meteohub,2013-03-04 01:43:00,
2013-03-03 20:48:00,20.8,17.6,30.09,NNW,340,1.0,6.0,87,0.00,,,0.00,meteohub,2013-03-04 01:48:00,
2013-03-03 20:53:00,20.8,17.6,30.09,NE,34,1.0,6.0,87,0.00,,,0.00,meteohub,2013-03-04 01:53:00,
2013-03-03 20:59:00,20.8,17.6,30.09,NNW,333,2.0,4.0,87,0.00,,,0.00,meteohub,2013-03-04 01:59:00,
2013-03-03 21:04:00,20.8,17.6,30.09,NNW,347,0.0,4.0,87,0.00,,,0.00,meteohub,2013-03-04 02:04:00,
2013-03-03 21:09:00,20.7,17.4,30.09,North,9,3.0,4.0,87,0.00,,,0.00,meteohub,2013-03-04 02:09:00,
2013-03-03 21:14:00,20.7,17.4,30.09,NNW,346,2.0,4.0,87,0.00,,,0.00,meteohub,2013-03-04 02:14:00,
2013-03-03 21:19:00,20.7,17.4,30.09,NE,42,2.0,5.0,87,0.00,,,0.00,meteohub,2013-03-04 02:19:00,
2013-03-03 21:24:00,20.5,17.2,30.10,NNW,338,3.0,5.0,87,0.00,,,0.00,meteohub,2013-03-04 02:24:00,
2013-03-03 21:29:00,20.5,17.2,30.09,NNW,345,2.0,5.0,87,0.00,,,0.00,meteohub,2013-03-04 02:29:00,
2013-03-03 21:35:00,20.5,17.2,30.09,NNW,345,2.0,5.0,87,0.00,,,0.00,meteohub,2013-03-04 02:35:00,
2013-03-03 21:40:00,20.5,17.2,30.09,NNW,345,1.0,4.0,87,0.00,,,0.00,meteohub,2013-03-04 02:40:00,
2013-03-03 21:45:00,20.3,17.2,30.09,NNW,345,2.0,4.0,88,0.00,,,0.00,meteohub,2013-03-04 02:45:00,
2013-03-03 21:50:00,20.3,17.2,30.09,NNW,345,2.0,3.0,88,0.00,,,0.00,meteohub,2013-03-04 02:50:00,
2013-03-03 21:55:00,20.3,17.2,30.09,NNW,345,1.0,3.0,88,0.00,,,0.00,meteohub,2013-03-04 02:55:00,
2013-03-03 22:00:00,20.1,17.1,30.09,NNW,345,1.0,3.0,88,0.00,,,0.00,meteohub,2013-03-04 03:00:00,
2013-03-03 22:06:00,20.1,17.1,30.09,NNW,345,0.0,2.0,88,0.00,,,0.00,meteohub,2013-03-04 03:06:00,
2013-03-03 22:11:00,20.1,17.1,30.09,NNW,345,1.0,3.0,88,0.00,,,0.00,meteohub,2013-03-04 03:11:00,
2013-03-03 22:16:00,20.1,17.4,30.09,NNW,345,1.0,3.0,89,0.00,,,0.00,meteohub,2013-03-04 03:16:00,
2013-03-03 22:21:00,20.3,17.6,30.09,NNW,345,2.0,3.0,89,0.00,,,0.00,meteohub,2013-03-04 03:21:00,
2013-03-03 22:26:00,20.3,17.6,30.09,NNW,345,1.0,3.0,89,0.00,,,0.00,meteohub,2013-03-04 03:26:00,
2013-03-03 22:31:00,20.3,17.6,30.09,NNW,336,1.0,6.0,89,0.00,,,0.00,meteohub,2013-03-04 03:31:00,
2013-03-03 22:36:00,20.5,17.8,30.09,NNW,343,1.0,6.0,89,0.00,,,0.00,meteohub,2013-03-04 03:36:00,
2013-03-03 22:42:00,20.5,17.8,30.09,North,355,1.0,6.0,89,0.00,,,0.00,meteohub,2013-03-04 03:42:00,
2013-03-03 22:47:00,20.5,17.8,30.09,North,349,0.0,5.0,89,0.00,,,0.00,meteohub,2013-03-04 03:47:00,
2013-03-03 22:52:00,20.5,17.8,30.09,North,0,1.0,5.0,89,0.00,,,0.00,meteohub,2013-03-04 03:52:00,
2013-03-03 22:57:00,20.5,17.8,30.09,North,0,0.0,5.0,89,0.00,,,0.00,meteohub,2013-03-04 03:57:00,
2013-03-03 23:02:00,20.5,17.8,30.09,NNW,342,3.0,5.0,89,0.00,,,0.00,meteohub,2013-03-04 04:02:00,
2013-03-03 23:07:00,20.5,17.8,30.09,North,9,1.0,5.0,89,0.00,,,0.00,meteohub,2013-03-04 04:07:00,
2013-03-03 23:12:00,20.5,17.8,30.09,North,0,0.0,5.0,89,0.00,,,0.00,meteohub,2013-03-04 04:12:00,
2013-03-03 23:17:00,20.5,17.8,30.09,North,355,2.0,5.0,89,0.00,,,0.00,meteohub,2013-03-04 04:17:00,
2013-03-03 23:22:00,20.5,17.8,30.09,NNW,347,2.0,5.0,89,0.00,,,0.00,meteohub,2013-03-04 04:22:00,
2013-03-03 23:27:00,20.5,17.8,30.09,North,0,1.0,5.0,89,0.00,,,0.00,meteohub,2013-03-04 04:27:00,
2013-03-03 23:32:00,20.5,17.8,30.09,North,0,2.0,5.0,89,0.00,,,0.00,meteohub,2013-03-04 04:32:00,
2013-03-03 23:37:00,20.3,17.6,30.09,East,98,0.0,5.0,89,0.00,,,0.00,meteohub,2013-03-04 04:37:00,
2013-03-03 23:42:00,20.3,17.6,30.09,NNW,348,3.0,6.0,89,0.00,,,0.00,meteohub,2013-03-04 04:42:00,
2013-03-03 23:47:00,20.1,17.4,30.09,NNE,17,3.0,6.0,89,0.00,,,0.00,meteohub,2013-03-04 04:47:00,
2013-03-03 23:52:00,20.1,17.4,30.09,NE,35,2.0,6.0,89,0.00,,,0.00,meteohub,2013-03-04 04:52:00,
2013-03-03 23:57:00,20.1,17.4,30.09,North,351,5.0,6.0,89,0.00,,,0.00,meteohub,2013-03-04 04:57:00,